Weather History for KAOH - November, 2013

Change the Weather History Date:

Sunday, November 17, 2013

  Actual Average (KFDY) Record (KFDY)
Temperature  
Mean Temperature 56 °F -  
Max Temperature 64 °F 47 °F 70 °F (1953)
Min Temperature 48 °F 33 °F 10 °F (1959)
Degree Days  
Heating Degree Days 9    
Growing Degree Days 6 (Base 50)    
Moisture  
Dew Point 53 °F    
Average Humidity 78    
Maximum Humidity 88    
Minimum Humidity 62    
Precipitation  
Precipitation 0.82 in - - ()
Sea Level Pressure  
Sea Level Pressure 29.63 in    
Wind  
Wind Speed 20 mph (SSW)    
Max Wind Speed 38 mph    
Max Gust Speed 52 mph    
Visibility 9 miles    
Events Rain , Thunderstorm    
Averages and records for this station are not official NWS values.
T = Trace of Precipitation, MM = Missing Value Source: NWS Daily Summary

Daily Weather History Graph

Daily Weather History Graph

Search for Another Location

Airport or City:

Trip Planner

Search our weather history database for the weather conditions in past years. The results will help you decide how hot, cold, wet, or windy it might be!

Date:

Astronomy

Nov. 17, 2013 Rise Set
Actual Time 7:25 AM EST 5:16 PM EST
Civil Twilight 6:56 AM EST 5:45 PM EST
Nautical Twilight 6:22 AM EST 6:19 PM EST
Astronomical Twilight 5:50 AM EST 6:51 PM EST
Moon 5:32 PM EST (11/17) 7:18 AM EST (11/17)
Length of Visible Light 10h 49m
Length of Day
9h 50m
Full, 100% of the Moon is Illuminated
Nov 17
Full
Nov 25
Last Quarter
Dec 2
New
Dec 9
First Quarter
Dec 17
Full

Hourly Weather History & Observations

Time (EST) Temp. Dew Point Humidity Pressure Visibility Wind Dir Wind Speed Gust Speed Precip Events Conditions
12:20 AM 60.8 °F 51.8 °F 72% 29.83 in 10.0 mi South 18.4 mph 28.8 mph N/A   Overcast
12:45 AM 60.8 °F 51.8 °F 72% 29.83 in 10.0 mi South 16.1 mph 27.6 mph N/A   Mostly Cloudy
12:53 AM 60.1 °F 53.1 °F 78% 29.82 in 10.0 mi South 18.4 mph 25.3 mph N/A   Mostly Cloudy
1:53 AM 61.0 °F 54.0 °F 78% 29.83 in 10.0 mi South 15.0 mph 20.7 mph N/A   Overcast
2:53 AM 59.0 °F 55.0 °F 87% 29.82 in 10.0 mi South 13.8 mph - 0.04 in Rain Light Rain
3:43 AM 59.0 °F 55.4 °F 88% 29.85 in 4.0 mi SSW 11.5 mph 20.7 mph 0.23 in Rain Heavy Rain
3:53 AM 59.0 °F 55.0 °F 87% 29.84 in 4.0 mi SSW 12.7 mph - 0.29 in Rain Heavy Rain
4:53 AM 59.0 °F 54.0 °F 83% 29.77 in 10.0 mi South 17.3 mph 24.2 mph 0.19 in Rain Light Rain
5:53 AM 59.0 °F 53.1 °F 81% 29.76 in 10.0 mi South 17.3 mph 25.3 mph 0.00 in Rain Light Rain
6:53 AM 57.9 °F 54.0 °F 87% 29.75 in 10.0 mi South 20.7 mph 27.6 mph 0.05 in Rain Light Rain
7:29 AM 57.2 °F 53.6 °F 88% 29.75 in 10.0 mi South 18.4 mph 25.3 mph 0.02 in   Overcast
7:53 AM 59.0 °F 54.0 °F 83% 29.74 in 10.0 mi South 16.1 mph 24.2 mph 0.02 in   Mostly Cloudy
8:53 AM 59.0 °F 55.0 °F 87% 29.72 in 10.0 mi South 18.4 mph - N/A   Scattered Clouds
9:53 AM 62.1 °F 55.9 °F 80% 29.71 in 10.0 mi South 18.4 mph 28.8 mph N/A   Overcast
10:32 AM 62.6 °F 55.4 °F 77% 29.70 in 10.0 mi South 20.7 mph 28.8 mph N/A   Mostly Cloudy
10:43 AM 62.6 °F 55.4 °F 77% 29.71 in 10.0 mi South 21.9 mph 32.2 mph N/A   Scattered Clouds
10:53 AM 63.0 °F 55.9 °F 78% 29.70 in 10.0 mi South 17.3 mph 29.9 mph N/A   Scattered Clouds
11:53 AM 64.0 °F 55.9 °F 75% 29.66 in 10.0 mi South 21.9 mph 36.8 mph N/A   Mostly Cloudy
12:43 PM 64.4 °F 57.2 °F 77% 29.62 in 10.0 mi South 21.9 mph 35.7 mph N/A   Mostly Cloudy
12:53 PM 64.9 °F 57.0 °F 75% 29.60 in 10.0 mi South 24.2 mph 33.4 mph N/A   Overcast
1:53 PM 64.9 °F 55.9 °F 73% 29.53 in 10.0 mi South 25.3 mph 34.5 mph N/A   Overcast
2:53 PM 64.9 °F 57.0 °F 75% 29.49 in 10.0 mi South 25.3 mph 36.8 mph N/A   Overcast
3:53 PM 64.9 °F 57.0 °F 75% 29.44 in 10.0 mi South 24.2 mph 35.7 mph N/A   Overcast
4:53 PM 64.9 °F 57.0 °F 75% 29.43 in 10.0 mi South 31.1 mph 39.1 mph N/A   Overcast
5:26 PM 64.4 °F 57.2 °F 77% 29.43 in 10.0 mi South 25.3 mph 33.4 mph 0.04 in Rain , Thunderstorm Light Rain
5:50 PM 62.6 °F 59.0 °F 88% 29.42 in 3.0 mi South 20.7 mph 29.9 mph 0.22 in Rain , Thunderstorm Heavy Thunderstorms and Rain
5:53 PM 63.0 °F 59.0 °F 87% 29.41 in 3.0 mi South 20.7 mph 31.1 mph 0.23 in Rain , Thunderstorm Thunderstorms and Rain
5:55 PM 62.6 °F 59.0 °F 88% 29.42 in 3.0 mi North - - N/A Rain , Thunderstorm Thunderstorms and Rain
6:00 PM 62.6 °F 57.2 °F 82% 29.47 in 1.5 mi WSW 38.0 mph 51.8 mph N/A Thunderstorm Haze
6:11 PM 60.8 °F 55.4 °F 82% 29.46 in 4.0 mi SW 28.8 mph 48.3 mph N/A Rain Light Rain
6:18 PM 60.8 °F 55.4 °F 82% 29.47 in 8.0 mi SW 25.3 mph 39.1 mph N/A Rain , Thunderstorm Light Rain
6:34 PM 60.8 °F 53.6 °F 77% 29.47 in 10.0 mi SW 20.7 mph 38.0 mph N/A Rain Light Rain
6:53 PM 61.0 °F 52.0 °F 72% 29.47 in 10.0 mi WSW 20.7 mph 32.2 mph N/A   Mostly Cloudy
7:53 PM 55.9 °F 43.0 °F 62% 29.51 in 10.0 mi West 23.0 mph 41.4 mph N/A   Clear
8:53 PM 54.0 °F 43.0 °F 66% 29.57 in 10.0 mi West 32.2 mph 41.4 mph N/A   Partly Cloudy
9:53 PM 51.1 °F 39.9 °F 66% 29.61 in 10.0 mi West 28.8 mph 43.7 mph N/A   Partly Cloudy
10:53 PM 48.9 °F 39.0 °F 69% 29.65 in 10.0 mi West 27.6 mph 39.1 mph N/A   Mostly Cloudy
11:22 PM 48.2 °F 39.2 °F 71% 29.67 in 10.0 mi WSW 28.8 mph 33.4 mph N/A   Mostly Cloudy
11:44 PM 48.2 °F 39.2 °F 71% 29.68 in 10.0 mi West 24.2 mph 31.1 mph N/A   Mostly Cloudy
11:53 PM 48.9 °F 39.0 °F 69% 29.69 in 10.0 mi West 19.6 mph 34.5 mph N/A   Overcast